User: anonymous   Login
Location: Unspecified
(0.0000°N, 0.0000°E)
Time: 13:01:10
(UTC+00:00)
Language:

Kiku-6 - Orbit

View from above orbital plane
View from above orbital plane
View from above satellite
View from above satellite

Ground track
Ground track

The orbit data is extracted from the following two-line orbital elements,

1 23230U 94056A   18293.37611389 -.00000145 +00000-0 +00000-0 0  9996
2 23230 013.3923 094.3119 5060321 125.9312 287.7898 01.67095800147490
Epoch (UTC): 20 October 2018 09:01:36
Eccentricity: 0.5060321
inclination: 13.3923°
perigee height: 8440 km
apogee height: 38799 km
right ascension of ascending node: 94.3119°
argument of perigee: 125.9312°
revolutions per day: 1.67095800
mean anomaly at epoch: 287.7898°
orbit number at epoch: 14749

The dashed part of the orbit path shows where the satellite is in the earth's shadow,  

DLR